Погода в Новоуральске

Россия / Оренбургская область     51°14′42″N   57°14′11″E
темп.,
°C
ветер,
м/с
пор.,
м/с
влажн.,
%
обл.,
%
осадки,
мм/ч
давл.,
гПа
погр.,
м
5 августа, чт
чт523:00+26юв512365 0.0 1012207
02:00+25юв334130 0.0 101140
05:00+24в2241100 0.0 101111
08:00+28юв3431100 0.1 1010176
11:00+36ю5516100 0.1 10091166
14:00+38юз5714100 0.0 10082590
17:00+38з771357 0.0 10073914
20:00+23всв81459100 10.1 1009224
6 августа, пт
пт623:00+23ю1161100 13.9 100918
02:00+21сз2266100 0.0 100915
05:00+21ссв116999 0.0 100913
08:00+21сз2269100 0.0 1010212
11:00+27ссз56486 0.0 10101010
14:00+31сз55300 0.0 10092736
17:00+31сз45235 0.0 10092816
20:00+27сз611290 0.0 1009371
7 августа, сб
сб723:00+22с48440 0.0 1011151
02:00+20св4125494 0.0 1013356
05:00+18ссв23605 0.0 101456
08:00+20св24525 0.0 1015299
11:00+25ссз22387 0.0 10141229
14:00+28зсз33255 0.0 10131972
17:00+30сз45135 0.0 10132353
20:00+26ссз48200 0.0 1013188
8 августа, вс
вс823:00+20с36330 0.0 1015106
02:00+18ссв12430 0.0 101613
05:00+17с22485 0.0 101714
08:00+19св244423 0.0 1018258
11:00+25с343270 0.0 10171318
14:00+29ссз45204 0.0 10152186
17:00+31ссз56155 0.0 10152485
20:00+26с462310 0.0 1015117
9 августа, пн
пн923:00+20ссв38352 0.0 1017146
02:00+18всв2441100 0.0 101893
05:00+16всв244779 0.0 101873
08:00+19в354136 0.0 1019265
11:00+25в332844 0.0 10181106
14:00+29юв1120100 0.0 10181756
17:00+29юз121893 0.0 10171921
20:00+26юв22245 0.0 101625